User: anonymous   Login
Location: Unspecified
(0.0000°N, 0.0000°E)
Time: 17:27:45
(UTC+01:00)
Language:

H-2A R/B - Orbit

View from above orbital plane
View from above orbital plane
View from above satellite
View from above satellite

Ground track
Ground track

The orbit data is extracted from the following two-line orbital elements,

1 26899U 01038B   14322.62493434  .00001702  00000-0  55130-3 0   788
2 26899 028.0539 085.4176 7150846 288.4804 094.8135 02.44092616113299
Epoch (UTC): 18 November 2014 14:59:54
Eccentricity: 0.7150846
inclination: 28.0539°
perigee height: 260 km
apogee height: 33584 km
right ascension of ascending node: 85.4176°
argument of perigee: 288.4804°
revolutions per day: 2.44092616
mean anomaly at epoch: 94.8135°
orbit number at epoch: 11329

The dashed part of the orbit path shows where the satellite is in the earth's shadow,  

DLR